User: anonymous   Login
Location: Unspecified
(51.0950°N, 12.9690°E)
Time: 16:08:12
(UTC+00:00)
Language:

PCSat - Orbit

View from above orbital plane
View from above orbital plane
View from above satellite
View from above satellite

Ground track
Ground track

The orbit data is extracted from the following two-line orbital elements,

1 26931U 01043C   24106.80261047  .00000323  00000-0  15364-3 0  9990
2 26931  67.0490 132.7149 0006148 281.8810  78.1602 14.31174339177020
Epoch (UTC): 15 April 2024 19:15:45
Eccentricity: 0.0006148
inclination: 67.0490°
perigee height: 783 km
apogee height: 792 km
right ascension of ascending node: 132.7149°
argument of perigee: 281.8810°
revolutions per day: 14.31174339
mean anomaly at epoch: 78.1602°
orbit number at epoch: 17702

The dashed part of the orbit path shows where the satellite is in the earth's shadow,  

DLR